Regional Weather Roundup
Issued by NWS

Home | Current Version | Previous Version | Graphics & Text | Print | Product List | Glossary On
Versions: 1 2 3 4 5 6 7 8 9 10 11 12 13 14 15 16 17 18 19 20 21 22 23 24 25 26 27 28 29 30 31 32 33 34 35 36 37 38 39 40 41 42 43 44 45 46 47 48 49 50
000
ASUS43 KTOP 241059
RWRKS

WEATHER ROUNDUP FOR KANSAS
NATIONAL WEATHER SERVICE GOODLAND KS
600 AM CDT FRI MAR 24 2017

NOTE:  "FAIR" INDICATES FEW OR NO CLOUDS BELOW 12,000 FEET WITH NO
SIGNIFICANT WEATHER AND/OR OBSTRUCTIONS TO VISIBILITY.

KSZ001>006-013>018-027>032-041>047-241200-
NORTHWEST KANSAS

CITY           SKY/WX    TMP DP  RH WIND       PRES   REMARKS
GOODLAND       CLOUDY    49  49 100 NE31G39   29.60F FOG
HAYS             N/A     58  45  62 SE10      29.60F
HILL CITY      CLOUDY    56  54  93 E12       29.65R
RUSSELL        CLOUDY    61  45  55 S13       29.61R
$$

KSZ061>065-074>080-084>089-241200-
SOUTHWEST KANSAS

CITY           SKY/WX    TMP DP  RH WIND       PRES   REMARKS
DODGE CITY     CLEAR     49  41  74 S10       29.58R
ELKHART          N/A     40  27  60 S17         N/A  WCI  31
GARDEN CITY    CLEAR     44  37  76 SE9       29.56R
GREAT BEND     PTCLDY    62  44  51 SE20      29.59S
LIBERAL        PTCLDY    48  30  49 S21G26    29.53S
$$

KSZ066>073-081>083-090>101-241200-
SOUTHEAST KANSAS

CITY           SKY/WX    TMP DP  RH WIND       PRES   REMARKS
CHANUTE        CLOUDY    69  40  34 S21G29    29.80R
COFFEYVILLE    CLOUDY    69  40  34 S24G32    29.80R
HUTCHINSON     CLOUDY    67  43  41 S25G33    29.64S
MEDICINE LODGE   N/A     64  43  46 S17G24    29.63S
NEWTON         PTCLDY    65  42  43 S20G26    29.69S
PARSONS        CLOUDY    69  39  33 S16G24    29.81R
WICHITA INTL   CLOUDY    68  42  38 S24G35    29.67F
WICHITA JABRA  MOCLDY    67  42  40 S24G32    29.69S
WINFIELD       CLOUDY    67  44  43 S23G31    29.73F
$$

KSZ007>012-019>026-033>040-048>060-102>105-241200-
NORTHEAST KANSAS

CITY           SKY/WX    TMP DP  RH WIND       PRES   REMARKS
CONCORDIA      CLOUDY    67  45  45 S13G22    29.67F
EMPORIA        CLOUDY    64  46  52 S18G25    29.72F
LAWRENCE       PTCLDY    67  49  52 SE15G23   29.75S
MANHATTAN      CLOUDY    68  43  40 S15G24    29.68R
OLATHE IND     PTCLDY    67  46  47 S16G25    29.78S
OLATHE EXE     CLEAR     67  47  48 S15G25    29.78F
SALINA         MOCLDY    68  42  38 S17G30    29.66R
TOPEKA BILLARD CLOUDY    69  47  45 S20G29    29.71F
TOPEKA FORBES  CLOUDY    69  46  43 S22G30    29.71F
$$




USA.gov is the U.S. government's official web portal to all federal, state and local government web resources and services.